Regional Weather Roundup
Issued by NWS

Home | Current Version | Previous Version | Graphics & Text | Print | Product List | Glossary On
Versions: 1 2 3 4 5 6 7 8 9 10 11 12 13 14 15 16 17 18 19 20 21 22 23 24 25 26 27 28 29 30 31 32 33 34 35 36 37 38 39 40 41 42 43 44 45 46 47 48 49 50
000
ASUS43 KOAX 310510
RWRNE

WEATHER ROUNDUP FOR NEBRASKA
NATIONAL WEATHER SERVICE OMAHA NE
1200 AM CDT FRI OCT 31 2014

NOTES: SATELLITE DATA IS BEING USED TO AUGMENT CLOUD COVER ABOVE
       12000 FEET.
       "FAIR" INDICATES FEW OR NO CLOUDS BELOW 12,000 FEET WITH NO
       SIGNIFICANT WEATHER AND/OR OBSTRUCTIONS TO VISIBILITY.

  * THESE STATIONS DO NOT REPORT WEATHER SUCH AS RAIN...SNOW OR FOG.

NEZ001>004-019>022-054>056-310600-
NEBRASKA PANHANDLE

CITY           SKY/WX    TMP DP  RH WIND       PRES   REMARKS
SCOTTSBLUFF    CLEAR     36  31  82 E8        30.43S WCI  30
ALLIANCE       CLEAR     29  26  89 CALM      30.44R
CHADRON        CLEAR     32  28  85 NE3       30.47R
KIMBALL        CLEAR     35  30  82 CALM      30.41S
SIDNEY         CLEAR     34  28  79 E6        30.43R WCI  29
$$

NEZ057>060-069>072-079>082-310600-
SOUTHWEST NEBRASKA

CITY           SKY/WX    TMP DP  RH WIND       PRES   REMARKS
NORTH PLATTE   CLEAR     34  29  82 E3        30.45R
IMPERIAL       CLEAR     35  28  75 NE6       30.44R WCI  30
LEXINGTON      CLEAR     37  32  84 N7        30.44S WCI  31
MCCOOK         CLEAR     41  31  67 NE14      30.43R
OGALLALA       CLEAR     36  31  82 NE5       30.44S WCI  32
$$

NEZ005>010-023>029-035>040-094-310600-
NORTH CENTRAL NEBRASKA

CITY           SKY/WX    TMP DP  RH WIND       PRES   REMARKS
VALENTINE      CLOUDY    32  28  85 NE13      30.50R WCI  22
AINSWORTH      CLOUDY    32  30  92 NE10      30.48R WCI  24
BROKEN BOW     CLEAR     36  31  82 N12       30.44R WCI  28
O`NEILL        CLOUDY    36  31  82 N20       30.48S WCI  25
ORD            MOCLDY    35  31  85 N12       30.45R WCI  27
THEDFORD       CLEAR     32  30  93 N3        30.47R
$$

NEZ041-046>049-061>064-073>077-083>087-310600-
SOUTH CENTRAL NEBRASKA

CITY           SKY/WX    TMP DP  RH WIND       PRES   REMARKS
GRAND ISLAND   CLEAR     38  32  79 N13       30.43R WCI  30
AURORA         CLEAR     39  32  76 N15G21    30.41R WCI  30
HASTINGS       CLEAR     39  32  76 N10       30.41R WCI  32
HEBRON         CLOUDY    45  34  66 N21G31    30.38R
HOLDREGE       CLEAR     37  32  81 N3        30.42S
KEARNEY *      CLEAR     37  30  75 NW9       30.43R WCI  31
YORK           MOCLDY    39  32  75 N15G26    30.40R WCI  31
$$

NEZ011>018-030>034-042>045-310600-
NORTHEAST NEBRASKA

CITY           SKY/WX    TMP DP  RH WIND       PRES   REMARKS
NORFOLK        CLOUDY    39  29  67 N24G31    30.44R WCI  28
ALBION         CLOUDY    39  31  72 N8G16     30.44R WCI  33
BLAIR          CLOUDY    41  31  67 N25G35    30.37R
FREMONT        CLOUDY    42  32  67 N14G21    30.40R
TEKAMAH        CLOUDY    41  30  65 N25G38    30.41R
WAYNE          CLOUDY    38  29  70 N17G25    30.45R WCI  28
$$

NEZ050>053-065>068-078-088>093-310600-
SOUTHEAST NEBRASKA

CITY           SKY/WX    TMP DP  RH WIND       PRES   REMARKS
LINCOLN        CLOUDY    45  33  63 N20       30.39R
OMAHA EPPLEY   CLOUDY    42  31  64 N28G40    30.38R
BEATRICE       CLOUDY    46  37  73 N20G31    30.35R
FALLS CITY     CLOUDY    50  41  71 N18G25    30.27R
NEBRASKA CITY  CLOUDY    46  34  63 N23G29    30.32R
PLATTSMOUTH    CLOUDY    43  32  66 N16G28    30.35R
$$

NEZ044-045-051>053-067-310600-
OMAHA AREA

CITY           SKY/WX    TMP DP  RH WIND       PRES   REMARKS
OMAHA EPPLEY   CLOUDY    42  31  64 N28G40    30.38R
BLAIR          CLOUDY    41  31  67 N25G35    30.37R
FREMONT        CLOUDY    42  32  67 N14G21    30.40R
MILLARD        CLOUDY    42  32  67 N9G25     30.38R
OFFUTT AFB     CLOUDY    43  33  68 N21G29    30.36R
PLATTSMOUTH    CLOUDY    43  32  66 N16G28    30.35R
WAHOO          CLOUDY    42  31  64 N21G31    30.39R
$$



USA.gov is the U.S. government's official web portal to all federal, state and local government web resources and services.